Time,TemperatureF,DewpointF,PressureIn,WindDirection,WindDirectionDegrees,WindSpeedMPH,WindSpeedGustMPH,Humidity,HourlyPrecipIn,Conditions,Clouds,dailyrainin,SoftwareType,DateUTC
2013-02-21 00:00:00,25.0,-99.9,-100.00,ESE,104,0.0,2.0,-999,-99.99,,,0.00,,2013-02-21 08:00:00,
2013-02-21 00:52:00,25.0,-99.9,-100.00,ESE,104,0.0,2.0,-999,-99.99,,,0.00,,2013-02-21 08:52:00,
2013-02-21 01:00:00,24.0,-99.9,-100.00,ESE,110,0.0,1.0,-999,-99.99,,,0.00,,2013-02-21 09:00:00,
2013-02-21 01:52:00,24.0,-99.9,-100.00,ESE,110,0.0,1.0,-999,-99.99,,,0.00,,2013-02-21 09:52:00,
2013-02-21 02:00:00,25.0,-99.9,-100.00,SSE,164,0.0,1.0,-999,-99.99,,,0.00,,2013-02-21 10:00:00,
2013-02-21 02:51:00,25.0,-99.9,-100.00,SSE,164,0.0,1.0,-999,-99.99,,,0.00,,2013-02-21 10:51:00,
2013-02-21 03:00:00,25.0,-99.9,-100.00,ESE,117,0.0,1.0,-999,-99.99,,,0.00,,2013-02-21 11:00:00,
2013-02-21 03:52:00,25.0,-99.9,-100.00,ESE,117,0.0,1.0,-999,-99.99,,,0.00,,2013-02-21 11:52:00,
2013-02-21 04:00:00,25.0,-99.9,-100.00,SSE,158,0.0,1.0,-999,-99.99,,,0.00,,2013-02-21 12:00:00,
2013-02-21 04:53:00,25.0,-99.9,-100.00,SSE,158,0.0,1.0,-999,-99.99,,,0.00,,2013-02-21 12:53:00,
2013-02-21 05:00:00,25.0,-99.9,-100.00,ENE,59,0.0,1.0,-999,-99.99,,,-99.99,,2013-02-21 13:00:00,
2013-02-21 05:52:00,25.0,-99.9,-100.00,ENE,59,0.0,1.0,-999,-99.99,,,-99.99,,2013-02-21 13:52:00,
2013-02-21 06:00:00,25.0,-99.9,-100.00,SE,143,1.0,2.0,-999,-99.99,,,0.01,,2013-02-21 14:00:00,
2013-02-21 06:52:00,25.0,-99.9,-100.00,SE,143,1.0,2.0,-999,-99.99,,,0.01,,2013-02-21 14:52:00,
2013-02-21 07:00:00,25.0,-99.9,-100.00,SE,134,0.0,1.0,-999,-99.99,,,0.01,,2013-02-21 15:00:00,
2013-02-21 07:52:00,25.0,-99.9,-100.00,SE,134,0.0,1.0,-999,-99.99,,,0.01,,2013-02-21 15:52:00,
2013-02-21 08:00:00,25.0,-99.9,-100.00,East,82,0.0,2.0,-999,-99.99,,,0.01,,2013-02-21 16:00:00,
2013-02-21 08:52:00,25.0,-99.9,-100.00,East,82,0.0,2.0,-999,-99.99,,,0.01,,2013-02-21 16:52:00,
2013-02-21 09:00:00,25.0,-99.9,-100.00,ENE,74,0.0,1.0,-999,-99.99,,,-99.99,,2013-02-21 17:00:00,
2013-02-21 09:52:00,25.0,-99.9,-100.00,ENE,74,0.0,1.0,-999,-99.99,,,-99.99,,2013-02-21 17:52:00,
2013-02-21 10:00:00,26.0,-99.9,-100.00,ENE,76,0.0,1.0,-999,-99.99,,,0.01,,2013-02-21 18:00:00,
2013-02-21 10:52:00,26.0,-99.9,-100.00,ENE,76,0.0,1.0,-999,-99.99,,,0.01,,2013-02-21 18:52:00,
2013-02-21 11:00:00,25.0,-99.9,-100.00,ESE,102,0.0,1.0,-999,-99.99,,,0.00,,2013-02-21 19:00:00,
2013-02-21 11:52:00,25.0,-99.9,-100.00,ESE,102,0.0,1.0,-999,-99.99,,,0.00,,2013-02-21 19:52:00,
2013-02-21 12:00:00,26.0,-99.9,-100.00,SE,143,1.0,2.0,-999,-99.99,,,0.01,,2013-02-21 20:00:00,
2013-02-21 12:53:00,26.0,-99.9,-100.00,SE,143,1.0,2.0,-999,-99.99,,,0.01,,2013-02-21 20:53:00,
2013-02-21 13:00:00,28.0,-99.9,-100.00,NE,48,1.0,1.0,-999,-99.99,,,0.01,,2013-02-21 21:00:00,
2013-02-21 13:52:00,28.0,-99.9,-100.00,NE,48,1.0,1.0,-999,-99.99,,,0.01,,2013-02-21 21:52:00,
2013-02-21 14:00:00,27.0,-99.9,-100.00,SSW,200,1.0,2.0,-999,-99.99,,,0.01,,2013-02-21 22:00:00,
2013-02-21 14:52:00,27.0,-99.9,-100.00,SSW,200,1.0,2.0,-999,-99.99,,,0.01,,2013-02-21 22:52:00,
2013-02-21 16:00:00,26.0,-99.9,-100.00,SE,127,0.0,2.0,-999,-99.99,,,0.01,,2013-02-22 00:00:00,
2013-02-21 16:52:00,26.0,-99.9,-100.00,SE,127,0.0,2.0,-999,-99.99,,,0.01,,2013-02-22 00:52:00,
2013-02-21 17:00:00,26.0,-99.9,-100.00,ESE,118,0.0,1.0,-999,-99.99,,,0.01,,2013-02-22 01:00:00,
2013-02-21 18:00:00,26.0,-99.9,-100.00,ESE,108,0.0,0.0,-999,-99.99,,,0.01,,2013-02-22 02:00:00,
2013-02-21 18:52:00,26.0,-99.9,-100.00,ESE,108,0.0,0.0,-999,-99.99,,,0.01,,2013-02-22 02:52:00,
2013-02-21 19:00:00,26.0,-99.9,-100.00,SE,133,0.0,1.0,-999,-99.99,,,0.01,,2013-02-22 03:00:00,
2013-02-21 19:52:00,26.0,-99.9,-100.00,SE,133,0.0,1.0,-999,-99.99,,,0.01,,2013-02-22 03:52:00,
2013-02-21 20:00:00,26.0,-99.9,-100.00,SE,128,0.0,0.0,-999,-99.99,,,0.01,,2013-02-22 04:00:00,
2013-02-21 20:52:00,26.0,-99.9,-100.00,SE,128,0.0,0.0,-999,-99.99,,,0.01,,2013-02-22 04:52:00,
2013-02-21 21:00:00,26.0,-99.9,-100.00,ENE,63,0.0,0.0,-999,-99.99,,,0.01,,2013-02-22 05:00:00,
2013-02-21 21:52:00,26.0,-99.9,-100.00,ENE,63,0.0,0.0,-999,-99.99,,,0.01,,2013-02-22 05:52:00,
2013-02-21 22:00:00,26.0,-99.9,-100.00,East,96,0.0,0.0,-999,-99.99,,,0.01,,2013-02-22 06:00:00,
2013-02-21 23:00:00,26.0,-99.9,-100.00,NE,55,0.0,0.0,-999,-99.99,,,0.01,,2013-02-22 07:00:00,
2013-02-21 23:52:00,26.0,-99.9,-100.00,NE,55,0.0,0.0,-999,-99.99,,,0.01,,2013-02-22 07:52:00,